OneWeb SL0519

operational
NORAD ID: 54137 Int'l Des: 2022-138 Owner: ONEWEBN Country: UK Constellation: oneweb
LEOCIRCULARPOLARONEWEB_TYPE

OneWeb SL0519について

説明を読み込み中...

リアルタイム位置

3D地球を読み込み中...

次回通過

高度履歴

Altitude vs Time

uPlot chart will show altitude changes over time

軌道要素

1 54137U 22138AA 26062.17903491 .00000078 00000-0 16366-3 0 9996
2 54137 87.9246 326.0739 0001497 75.9236 284.2063 13.19725864162854
Epoch: Mar 3, 2026 • Age: 12 hours

現在のステータス

高度 1197.7 km
速度 7.26 km/s
衛星直下点 75.47°N, 155.2°E
打ち上げ日 Oct 22, 2022
運用期間 3.3 years
タイプ internet

技術仕様

分類 Payload
質量 148.00 kg
乾燥質量 140.00 kg
総質量 148.00 kg
長さ 1.30 m
直径 1.00 m
スパン 5.00 m
形状 Trapezoid+2 pan
製造者 ONEWUS
バスタイプ ARROW
フェーズステータス In Orbit
所有者/国 ONEWEBN/UK

大規模コンステレーション

Loading constellations...